Regional Weather Roundup
Issued by NWS

Home | Current Version | Previous Version | Graphics & Text | Print | Product List | Glossary On
Versions: 1 2 3 4 5 6 7 8 9 10 11 12 13 14 15 16 17 18 19 20 21 22 23 24 25 26 27 28 29 30 31 32 33 34 35 36 37 38 39 40 41 42 43 44 45 46 47
000
ASUS45 KBOU 180710
RWRCO

WEATHER ROUNDUP FOR COLORADO
NATIONAL WEATHER SERVICE DENVER/BOULDER CO
100 AM MDT WED APR 18 2018

NOTE: "FAIR" INDICATES FEW OR NO CLOUDS BELOW 12000 FEET WITH NO
SIGNIFICANT WEATHER AND/OR OBSTRUCTIONS TO VISIBILITY.

COZ001>005-013-030-031-180800-
...NORTHWEST COLORADO...

CITY           SKY/WX    TMP DP  RH WIND       PRES   REMARKS
CRAIG          FAIR      26  18  71 NW6       30.23R WCI  19
HAYDEN         FAIR      23  15  71 W5        30.23R WCI  17
MEEKER         FAIR      24  20  84 CALM      30.24R
RANGELY        FAIR      23  12  64 CALM      30.25S
RABBIT EARS PA CLOUDY    12  10  92 W9G20     30.13R WCI   0
STEAMBOAT SPGS FAIR      25  15  65 S7        30.21R WCI  17
WALDEN         FAIR      19   9  63 NW12      30.17R WCI   7
$$

COZ006>008-011-180800-
...WEST CENTRAL VALLEYS...

CITY           SKY/WX    TMP DP  RH WIND       PRES   REMARKS
GRAND JUNCTION FAIR      30  16  56 CALM      30.23S
MONTROSE       FAIR      27  12  53 SE7       30.26R WCI  19
EAGLE          FAIR      24  20  84 E7        30.27R WCI  16
RIFLE          FAIR      30  24  78 SE6       30.26R WCI  24
DELTA          FAIR      34  12  40 E5        30.24R WCI  30
NUCLA          NOT AVBL
$$

COZ017>023-064>068-180800-
...SOUTHWEST COLORADO...

CITY           SKY/WX    TMP DP  RH WIND       PRES   REMARKS
DURANGO        FAIR      33   0  24 NW15      30.13F WCI  23
CORTEZ         FAIR      24   0  35 SE5       30.20R WCI  18
PAGOSA SPRINGS FAIR      25   1  35 CALM      30.13F
TELLURIDE      FAIR      23   2  40 S5        30.22S WCI  17
WOLF CREEK PAS FAIR      14   0  52 W3        30.19S
$$

COZ009-010-012-014-032>034-037-058>063-180800-
...CENTRAL COLORADO...

CITY           SKY/WX    TMP DP  RH WIND       PRES   REMARKS
ASPEN          FAIR      20  16  84 CALM      30.22R
BUENA VISTA    FAIR      27   8  43 NW14G21   30.13S WCI  16
COPPER MTN     NOT AVBL
BERTHOUD PASS  CLOUDY     3  -6  66 MISG      29.90F
COTTONWOOD PAS FAIR      27  10  50 W16G29    30.10S WCI  14
GUNNISON       FAIR      24   7  48 NW3       30.21R
GRANBY         FAIR      22  15  73 W15G22    30.18R WCI   9
KREMMLING      CLOUDY    32  14  47 W8        30.22R WCI  25
LEADVILLE      CLOUDY    15   9  76 W8        30.15R WCI   4
SALIDA         FAIR      32   9  38 N7        30.19S WCI  26
SUNLIGHT       FAIR      10   7  85 W3        30.24R
WILKERSON PASS FAIR      12   3  67 W13G24    30.05F WCI  -3
$$

COZ069>075-180800-
...SAN LUIS VALLEY/SANGRE DE CRISTO MOUNTAINS...

CITY           SKY/WX    TMP DP  RH WIND       PRES   REMARKS
ALAMOSA        FAIR      30   5  34 N17       30.13R WCI  18
DEL NORTE      FAIR      28   4  36 W6        30.14S WCI  21
LA VETA PASS   FAIR      27   3  36 SW17G31   30.17R WCI  14
SAGUACHE       NOT AVBL
$$

COZ035-036-038>040-180800-
...NORTHERN COLORADO FRONT RANGE...

CITY           SKY/WX    TMP DP  RH WIND       PRES   REMARKS
DENVER INTL AP FAIR      33  21  61 NW9       30.08R WCI  25
AURORA         CLEAR     30  21  69 CALM      30.09R
FRONT RANGE AP FAIR      31  22  69 NW7       30.09R WCI  24
ERIE MUNI ARPT FAIR      29  20  71 CALM      30.15R
BOULDER MUN AP FAIR      39   9  28 NW12G24   30.07F
CENTENNIAL     FAIR      37   9  31 NW21G31   30.09R
BROOMFIELD     FAIR      36   9  32 NW13      30.09S
FORT COLLINS   FAIR      34  22  61 NE9       30.09R WCI  27
LONGMONT       FAIR      39  11  31 NW5       30.11R
$$

COZ041-046-047-076>085-087-088-180800-
...PIKES PEAK/PALMER DIVIDE AND SOUTHERN FOOTHILLS...

CITY           SKY/WX    TMP DP  RH WIND       PRES   REMARKS
COLO. SPRINGS  FAIR      37   4  25 N17G25    30.07R
A. F. ACADEMY  FAIR      34   2  25 N16G31    30.06R WCI  24
SCHRIEVER AFB  NOT AVBL
CHEYENNE MTN   FAIR      32   6  33 N9        30.01R WCI  24
ELLICOTT         N/A    N/A N/A N/A N10       30.07R
FALCON         FAIR      31   7  35 N13G18    30.08R WCI  22
FORT CARSON    FAIR      37   5  26 N10G29    30.06R
LIMON          FAIR      31  19  61 NW20      30.05R WCI  19
MONUMENT HILL  FAIR      28  10  47 NW17G24   30.09R WCI  16
CANON CITY     FAIR      41  14  33 NW21G28   30.06R
WALSENBURG     NOT AVBL
TRINIDAD       FAIR      40  11  30 W3        30.08R
$$

COZ042>045-048>051-090-091-180800-
...NORTHEAST COLORADO...

CITY           SKY/WX    TMP DP  RH WIND       PRES   REMARKS
GREELEY ARPT   FAIR      36  21  54 NW20      30.09R
AKRON          FAIR      31  24  75 NW16G26   30.04R WCI  20
BURLINGTON     FAIR      36  26  67 NW24G32   29.99R
WRAY           FAIR      36  30  80 NW24G30   29.99R
YUMA           FAIR      32  27  80 NW14G22   30.02R WCI  22
STERLING       FAIR      34  27  75 NW15G23   30.03R WCI  24
HOLYOKE        MOCLDY    37  30  75 NW20G29   29.98R
FORT MORGAN    FAIR      32  18  55 NW16G23   30.06R WCI  21
$$

COZ086-089-092>099-180800-
...SOUTHEAST COLORADO...

CITY           SKY/WX    TMP DP  RH WIND       PRES   REMARKS
PUEBLO         FAIR      42  11  28 N14       30.06R
LA JUNTA       FAIR      43  20  39 N20G30    30.04R
LAMAR          FAIR      43  16  33 MISG      30.01R
SPRINGFIELD      N/A     38  18  44 N17       30.02R
$$




USA.gov is the U.S. government's official web portal to all federal, state and local government web resources and services.